Regional Weather Roundup
Issued by NWS

Home | Current Version | Previous Version | Graphics & Text | Print | Product List | Glossary On
Versions: 1 2 3 4 5 6 7 8 9 10 11 12 13 14 15 16 17 18 19 20 21 22 23 24 25 26 27 28 29 30 31 32 33 34 35 36 37 38 39 40 41 42 43 44 45 46 47 48 49 50
000
ASUS43 KLSX 010907
RWRMO

WEATHER SUMMARY FOR MISSOURI
NATIONAL WEATHER SERVICE SPRINGFIELD MO
400 AM CDT WED OCT 01 2014

NOTE: "FAIR" INDICATES FEW OR NO CLOUDS BELOW 12,000 FEET WITH NO
       SIGNIFICANT WEATHER AND/OR OBSTRUCTIONS TO VISIBILITY.
       CURRENT SKY AND/OR WEATHER CONDITIONS ARE NOT AVAILABLE FOR
       CHILLICOTHE AND FARMINGTON.

MOZ001>031-035>038-043-044-053-054-011000-
...NORTHERN AND WESTERN MISSOURI...

CITY           SKY/WX    TMP DP  RH WIND       PRES   REMARKS
KANSAS CTY INT CLOUDY    70  60  70 S16       29.73F
KANSAS C DTWN  MOCLDY    71  59  65 S14G21    29.73F
LEE`S SUMMIT   PTCLDY    67  58  72 S12G18    29.76F
ST JOSEPH      TSTM      66  64  93 NW12      29.77R FOG
CHILLICOTHE      N/A     68  58  70 S7        29.79F
KIRKSVILLE     CLEAR     60 N/A N/A E6        29.84F

$$
MOZ066>068-077>081-088>096-101>105-011000-
...SOUTHWEST MISSOURI...

CITY           SKY/WX    TMP DP  RH WIND       PRES   REMARKS
SPRINGFIELD    MOCLDY    66  56  70 S10       29.84F
JOPLIN         PTCLDY    70  59  68 SE9       29.80F

$$
MOZ032>034-039>042-045>050-055>058-069>072-011000-
...CENTRAL MISSOURI...

CITY           SKY/WX    TMP DP  RH WIND       PRES   REMARKS
COLUMBIA       CLEAR     62  55  77 SE8       29.85F
JEFFERSON CITY CLEAR     60  55  83 SE6       29.84F
ROLLA          CLEAR     64  52  64 SE10      29.86S
SEDALIA        CLOUDY    66  55  67 S9        29.82F
WHITEMAN AFB   PTCLDY    65  56  70 S10       29.80F
OSAGE BEACH    CLEAR     63  52  67 S5        29.85S

$$
MOZ051-052-059>065-011000-
...EAST CENTRAL MISSOURI...

CITY           SKY/WX    TMP DP  RH WIND       PRES   REMARKS
ST LOUIS INTL  CLEAR     64  59  83 E8        29.90S
SPIRIT OF STL  CLEAR    N/A N/A N/A E3        29.87F
ST CHARLES     CLEAR     61  58  90 E7        29.89F

$$
MOZ072>076-082>087-097>100-106>115-011000-
...SOUTH CENTRAL AND SOUTHEAST MISSOURI...

CITY           SKY/WX    TMP DP  RH WIND       PRES   REMARKS
CAPE GIRARDEAU CLEAR     56  54  93 E3        29.89S
FARMINGTON     CLEAR     55  52  88 CALM      29.92S
POPLAR BLUFF   CLEAR     58  55  90 CALM      29.88S
WEST PLAINS    CLEAR     61  53  75 CALM      29.90F

$$



USA.gov is the U.S. government's official web portal to all federal, state and local government web resources and services.